Weather History for Kingston, Jamaica

Change the Weather History Date:

Friday, March 8, 2013

  Actual Average Record
Temperature  
Mean Temperature 80 °F -  
Max Temperature 86 °F 84 °F 89 °F (2007)
Min Temperature 73 °F 75 °F 71 °F (2001)
Cooling Degree Days 14    
Growing Degree Days 30 (Base 50)    
Moisture  
Dew Point 70 °F    
Average Humidity 71    
Maximum Humidity 83    
Minimum Humidity 56    
Precipitation  
Precipitation 0.00 in - - ()
Sea Level Pressure  
Sea Level Pressure 29.98 in    
Wind  
Wind Speed 8 mph ()    
Max Wind Speed 15 mph    
Max Gust Speed -    
Visibility 7.8 miles    
Events      
Averages and records for this station are not official NWS values.
T = Trace of Precipitation, MM = Missing Value Source: Averaged Metar Reports

Daily Weather History Graph

Daily Weather History Graph

Search for Another Location

Airport:

Trip Planner

Search our weather history database for the weather conditions in past years. The results will help you decide how hot, cold, wet, or windy it might be!

Date:

Astronomy

Mar. 08, 2013 Rise Set
Actual Time 6:20 AM EST 6:15 PM EST
Civil Twilight 5:58 AM EST 6:37 PM EST
Nautical Twilight 5:33 AM EST 7:02 PM EST
Astronomical Twilight 5:08 AM EST 7:27 PM EST
Moon 3:40 AM EST (3/8) 3:28 PM EST (3/8)
Length of Visible Light 12h 38m
Length of Day
11h 54m
Waning Crescent, 12% of the Moon is Illuminated
Mar 8
Waning Crescent
Mar 11
New
Mar 19
First Quarter
Mar 27
Full
Apr 2
Last Quarter

Hourly Weather History & Observations

Time (EST) Temp. Heat Index Dew Point Humidity Pressure Visibility Wind Dir Wind Speed Gust Speed Precip Events Conditions
12:00 AM 77.0 °F - 68.0 °F 74% 30.01 in 6.2 mi NNE 8.1 mph - N/A   Partly Cloudy
1:00 AM 76 °F - 70 °F 77% 30.00 in 14 mi North 8.1 mph - -   Haze
1:00 AM 75.2 °F - 69.8 °F 83% 29.98 in 6.2 mi North 8.1 mph - N/A   Partly Cloudy
2:00 AM 75.2 °F - 68.0 °F 78% 29.98 in 6.2 mi North 8.1 mph - N/A   Partly Cloudy
3:00 AM 75.2 °F - 68.0 °F 78% 29.98 in 6.2 mi North 10.4 mph - N/A   Partly Cloudy
4:00 AM 75 °F - 68 °F 73% 29.97 in 12 mi North 9.2 mph - -   Haze
4:00 AM 75.2 °F - 68.0 °F 78% 29.95 in 6.2 mi North 9.2 mph - N/A   Partly Cloudy
5:00 AM 75.2 °F - 68.0 °F 78% 29.95 in - North - - N/A   Partly Cloudy
6:00 AM 75.2 °F - 68.0 °F 78% 29.98 in 6.2 mi North 8.1 mph - N/A   Partly Cloudy
7:00 AM 74 °F - 69 °F 79% 30.01 in 14 mi NNE 9.2 mph - -   Haze
7:00 AM 75.2 °F - 68.0 °F 78% 30.01 in 6.2 mi NNE 9.2 mph - N/A   Partly Cloudy
8:00 AM 77.0 °F - 68.0 °F 74% 30.01 in 6.2 mi NNW 4.6 mph - N/A   Partly Cloudy
9:00 AM 80.6 °F 83.9 °F 69.8 °F 70% 30.04 in 6.2 mi South 4.6 mph - N/A   Partly Cloudy
10:00 AM 80 °F - 71 °F 67% 30.04 in 15 mi South 6.9 mph - -   Haze
10:00 AM 80.6 °F 84.6 °F 71.6 °F 74% 30.04 in 6.2 mi South 6.9 mph - N/A   Partly Cloudy
11:00 AM 80.6 °F 83.9 °F 69.8 °F 70% 30.04 in 6.2 mi South 8.1 mph - N/A   Partly Cloudy
12:00 PM 82.4 °F 86.3 °F 69.8 °F 66% 30.01 in 6.2 mi South 11.5 mph - N/A   Partly Cloudy
1:00 PM 86 °F - 72 °F 56% 29.98 in 9 mi South 12.7 mph - -   Haze
1:00 PM 86.0 °F 93.4 °F 73.4 °F 66% 29.98 in 6.2 mi South 12.7 mph - N/A   Partly Cloudy
1:18 PM 86 °F - 72 °F 56% 29.98 in 9 mi South 12.7 mph - -   Haze
2:00 PM 84.2 °F 89.6 °F 71.6 °F 66% 29.95 in 6.2 mi SSE 13.8 mph - N/A   Partly Cloudy
3:00 PM 84.2 °F 89.6 °F 71.6 °F 66% 29.92 in 6.2 mi SSE 15.0 mph - N/A   Scattered Clouds
4:00 PM 85 °F - 72 °F 58% 29.94 in 9 mi SE 15.0 mph - -   Haze
4:00 PM 84.2 °F 90.9 °F 73.4 °F 70% 29.92 in 6.2 mi SE 15.0 mph - N/A   Partly Cloudy
5:00 PM 84.2 °F 89.6 °F 71.6 °F 66% 29.92 in 6.2 mi SE 13.8 mph - N/A   Scattered Clouds
6:00 PM 82.4 °F 87.2 °F 71.6 °F 70% 29.92 in 6.2 mi ENE 9.2 mph - N/A   Mostly Cloudy
7:00 PM 82 °F - 70 °F 60% 29.97 in 12 mi North 10.4 mph - -   Haze
7:00 PM 82.4 °F 86.3 °F 69.8 °F 66% 29.95 in 6.2 mi North 10.4 mph - N/A   Partly Cloudy
8:00 PM 78.8 °F - 69.8 °F 74% 29.98 in 6.2 mi NNW 10.4 mph - N/A   Partly Cloudy
9:00 PM 78.8 °F - 68.0 °F 69% 29.98 in 6.2 mi North 11.5 mph - N/A   Mostly Cloudy
10:00 PM 78 °F - 69 °F 67% 30.01 in 12 mi North 8.1 mph - -   Haze
10:00 PM 77.0 °F - 69.8 °F 78% 30.01 in 6.2 mi North 8.1 mph - N/A   Scattered Clouds
11:00 PM 78.8 °F - 68.0 °F 69% 29.98 in 6.2 mi West 3.5 mph - N/A   Scattered Clouds